DMSP 5D-2 F13 DEB, 42297

Orbit data source: Space-Track

DMSP 5D-2 F13 DEB, 42297 is space debris in SSO originally from a launch on Fri, 24 Mar 1995 UTC launched from the Air Force Western Test Range (AFWTR). Debris objects in space refer to the collection of defunct objects orbiting the Earth. Examples of debris include non-operational satellites, rocket bodies, and fragments generated from explosions, collisions, or faulty payload assembly.

Loading next visibility...
Identifier
42297, 1995-015HP
Orbit
SSO
Country
Flag of USUS
Related business
Manufacturer
Unknown
Mission
Spacecraft
Bus & Motor
Unknown
Mass
Unknown
Launch date (UTC)
1995-03-24 (31 years ago)
Launch vehicle
Unknown
Launch site
Air Force Western Test Range (AFWTR)
Object type
Payload
Rocket body
Debris
Shape & HBR
Unknown shape, 0.1 m
Radar Cross Section
Small (<0.1 m²)

Expand to show TLE details & history
Last TLE update: 6 days ago

TLE from 6 days ago
0 DMSP 5D-2 F13 DEB
1 42297U 95015HP  25335.72563221  .00010458  00000-0  32012-2 0  9998
2 42297  98.8556 329.4988 0027895 169.8064 190.3695 14.41719245527347
Epoch: 2025-12-01T17:24Z
TLE epoch observation values (Epoch: 2025-12-01T17:24:54.622Z)
Latitude
-0.0001°
Longitude
-2.54978°
Altitude
775.336 km
Speed
7.456 km/s
True Right ascension
21h 57m 59s
True Declination
0° 00' 00"
Sunlit
Object was in daylight at epoch
Visualization orbit readout
Latitude
Unknown
Longitude
Unknown
Altitude
Unknown
Speed
Unknown
Apparent Right ascension
Unknown
Apparent Declination
Unknown
Sunlit
N/A
Visualization observer readout
Local Sidereal Time
13:31:21
Azimuth
Unknown
Elevation
Unknown
Doppler factor
Unknown
Orbital elements
Apogee altitude
769.844 km
Perigee altitude
730.077 km
Semi-major axis
7,128.097 km
Eccentricity
0.00279
Inclination
98.8556°
RAAN
329.4988°
Arg. of periapsis
169.8064°
True anomaly
190.31216°
Mean anomaly
190.3695°
Eccentric anomaly
190.34081°
Mean motion
3.60647 °/min
Orbital period
99.82 mins
BSTAR
0.0032012
Loading maneuver chart data...
Computing Atmospheric mass density...

Documentation

Showing up to 5 results
|